[[{"header":{"parameterUnit":"m.s-1","parameterCategory":1,"la1":30.2991,"la2":30.254,"lo1":-89.0895,"lo2":-89.0444,"dy":0.0017,"dx":0.0017,"nx":28,"ny":28,"refTime":"2023-08-01T09:00:00:Z","depth":0,"parameterNumber":2,"parameterNumberName":"U-component_of_WINDS"},"data":[0,0,0,0,0,0,0,0,0,0,0,0,0,0,0,0,0,0,0,0,0,0,0,0,0,0,0,0,0,0,0,0,0,0,0,0,0,0,0,0,0,0,0,0,0,0,0,0,0,0,0,0,0,0,0,0,0,0,0.9745,0.9745,0,0.9814,0.9814,0.9815,0.9838,0.9838,0.9837,0.9837,0.9905,0.9907,0.9909,0,0,0,0,0,0,0,0,0,0,0,0,0,0.963,0.9632,0.9745,0.9745,0.9746,0.9814,0.9814,0.9815,0.9838,0.9838,0.9837,0.9837,0.9905,0.9907,0.991,0,0,0,0,0,0,0,0,0,0,0,0,0,0.9687,0.9633,0.9744,0.9766,0.9768,0.9813,0.9815,0.9816,0.9838,0.9838,0.9837,0.9837,0.9904,0.9907,0.991,0.9938,0,0,0.992,0.9921,0,0,0,0,0,0,0,0,0.9684,0.9692,0.9762,0.9764,0.9767,0.9817,0.9799,0.9857,0.9838,0.9811,0.9837,0.9837,0.9876,0.9881,0.9895,0.9941,0.9944,0.992,0.9922,0.9923,0.9924,0,0,0,0,0,0,0,0.968,0.9689,0.9772,0.9763,0.9766,0.9771,0.9779,0.981,0.9845,0.9814,0.9816,0.9824,0.9878,0.9892,0.9897,0.9945,0.992,0.9923,0.9925,0.9926,1.0018,1.0019,0,0,0,0,0,0,0.9673,0.9685,0.977,0.9774,0.9724,0.9774,0.9782,0.9801,0.9845,0.9851,0.9824,0.9824,0.9887,0.9893,0.99,0.9936,0.9923,0.9926,0.9928,1.0017,1.0018,1.0019,0,0,0,0,0,0,0.967,0.968,0.9767,0.973,0.9742,0.9776,0.9797,0.9803,0.9818,0.9853,0.9859,0.9833,0.9887,0.9895,0.9929,0.9938,0.9927,0.993,1.0017,1.0018,1.0018,1.0008,0,0,0,0,0,0,0.9667,0.9679,0.9691,0.973,0.9743,0.9795,0.9798,0.9805,0.9823,0.9825,0.9863,0.9868,0.9887,0.9924,0.9932,0.9942,0.9933,1.0016,1.0017,1.0018,1.0007,1.0008,1.0009,0,0,0,0,0,0.9663,0.9684,0.9691,0.9701,0.9759,0.9796,0.9803,0.9825,0.9824,0.9836,0.9858,0.9867,0.9936,0.9927,0.9936,0.9948,1.0016,1.0017,1.0018,1.0007,1.0008,1.0009,0,0,0,0,0,0,0.9644,0.969,0.9698,0.9733,0.976,0.98,0.9815,0.9825,0.9853,0.9853,0.9878,0.9887,0.9918,0.9936,0.9926,0.9977,0.9976,0.9979,0.9965,0.9966,0.9966,0.9961,0.9935,0,0,0,0,0,0.9644,0.9671,0.9709,0.9737,0.975,0.978,0.9797,0.9812,0.9841,0.9852,0.9877,0.9904,0.9932,0.995,0.9977,1.001,1.0019,1.0023,1.0023,1.0024,1.0026,1.0045,1.0047,1.0023,1.0023,1.0023,0,0,0.9644,0.9673,0.9688,0.9734,0.9757,0.9783,0.979,0.9818,0.9838,0.9856,0.989,0.9909,0.9941,0.9974,0.999,0.999,1.0035,1.0025,1.0025,1.0028,1.0046,1.0048,1.005,1.0024,1.0024,1.0024,0,0,0.9658,0.9682,0.9708,0.9731,0.9766,0.9786,0.9792,0.983,0.9844,0.9878,0.9892,0.9916,0.9963,0.9986,1.0003,1.0026,1.0036,1.0034,1.0038,1.0056,1.0058,1.0059,1.0068,1.007,1.0037,1.0037,1.0037,0,0.9653,0.9695,0.9719,0.9747,0.9767,0.9786,0.9811,0.9832,0.9874,0.9887,0.9887,0.9947,0.997,1.0009,1.0014,1.0028,1.0035,1.003,1.0056,1.0058,1.006,1.0068,1.0071,1.0036,1.0036,1.0036,1.0036,0,0.9688,0.9717,0.9733,0.9774,0.9795,0.9822,0.9849,0.9868,0.9881,0.99,0.9935,0.9963,0.9997,1.0007,1.0019,1.0048,1.0047,1.0051,1.005,1.0061,1.0069,1.0072,1.0036,1.0036,1.0036,1.0036,0,0,0.9691,0.9746,0.9752,0.9771,0.9811,0.9833,0.986,0.9894,0.991,0.9938,0.9961,1.0001,1.0005,1.0025,1.004,1.0056,1.0072,1.0058,1.0059,1.006,1.0105,1.0102,1.0105,1.0079,1.008,1.008,1.0102,0,0.971,0.9761,0.9783,0.9823,0.985,0.9869,0.9892,0.9919,0.9938,0.9963,0.9984,1.0012,1.0016,1.0028,1.0044,1.0067,1.0082,1.0066,1.01,1.0101,1.0092,1.0109,1.0106,1.0125,1.0106,1.0106,1.0107,0,0.9739,0.9769,0.9811,0.9849,0.9861,0.9882,0.9915,0.9939,0.997,0.9983,1.0005,1.002,1.0048,1.0046,1.0086,1.0074,1.009,1.0103,1.0104,1.0108,1.0104,1.0114,1.0132,1.0135,1.0112,1.0111,1.0111,0,0.9738,0.9788,0.982,0.9836,0.988,0.9894,0.9913,0.9944,0.9963,0.9992,1.0004,1.0035,1.0052,1.0076,1.0099,1.0095,1.0136,1.0135,1.0147,1.0147,1.0155,1.0154,1.0176,1.0165,1.0165,1.0165,1.0165,0,0.9756,0.9782,0.982,0.984,0.9868,0.9894,0.9922,0.9942,0.9969,0.9993,1.0011,1.0032,1.0061,1.0086,1.0104,1.0134,1.0141,1.0152,1.0157,1.0151,1.0149,1.0161,1.016,1.0166,1.0166,1.0165,1.0165,0,0.9759,0.9786,0.9822,0.9862,0.9872,0.9892,0.9925,0.9945,0.9965,0.9995,1.0003,1.0035,1.0065,1.0091,1.013,1.0142,1.0174,1.0179,1.0164,1.0166,1.0177,1.0175,1.0207,1.0213,1.0197,1.0197,1.0198,0,0.9769,0.979,0.9832,0.9849,0.9868,0.9896,0.9916,0.9942,0.9962,0.9999,1.0014,1.0046,1.0073,1.0121,1.0147,1.0177,1.0183,1.0192,1.0188,1.0181,1.0183,1.0182,1.0184,1.0192,1.0193,1.0193,1.0193,0,0.9785,0.9797,0.9825,0.9858,0.9882,0.9909,0.9936,0.9949,0.998,1.0001,1.0033,1.0054,1.0095,1.0127,1.016,1.0179,1.0191,1.0194,1.0198,1.0192,1.0183,1.0188,1.0165,1.0193,1.0193,1.0193,1.0193,1.0193,0.9792,0.981,0.9843,0.9874,0.9898,0.9923,0.9944,0.9967,0.9994,1.003,1.0044,1.0077,1.0107,1.0153,1.0173,1.0198,1.02,1.0206,1.0207,1.0209,1.0208,1.0179,1.0204,1.0204,1.0205,1.0205,1.0205,0,0.9808,0.983,0.9858,0.9897,0.9921,0.9931,0.9962,0.9981,1.001,1.0038,1.0065,1.0101,1.0132,1.0161,1.0193,1.0208,1.0214,1.0216,1.0215,1.0219,1.0205,1.0198,1.021,1.021,1.021,1.021,1.021,1.021,0.9819,0.9852,0.9868,0.9912,0.9934,0.9967,0.9984,1.0007,1.003,1.007,1.0097,1.0115,1.0144,1.0178,1.0207,1.0214,1.0225,1.0225,1.0234,1.0221,1.022,1.0219,1.0213,1.0227,1.0227,1.0246,1.0246,1.0246]},{"header":{"parameterUnit":"m.s-1","parameterCategory":1,"la1":30.2991,"la2":30.254,"lo1":-89.0895,"lo2":-89.0444,"dy":0.0017,"dx":0.0017,"nx":28,"ny":28,"refTime":"2023-08-01T09:00:00:Z","depth":0,"parameterNumber":3,"parameterNumberName":"V-component_of_WINDS"},"data":[0,0,0,0,0,0,0,0,0,0,0,0,0,0,0,0,0,0,0,0,0,0,0,0,0,0,0,0,0,0,0,0,0,0,0,0,0,0,0,0,0,0,0,0,0,0,0,0,0,0,0,0,0,0,0,0,0,0,1.3109,1.3107,0,1.2996,1.2995,1.2994,1.289,1.2889,1.2888,1.2887,1.2765,1.2763,1.2761,0,0,0,0,0,0,0,0,0,0,0,0,0,1.3227,1.3226,1.3109,1.3107,1.3106,1.2997,1.2995,1.2994,1.2891,1.2889,1.2888,1.2886,1.2766,1.2763,1.2761,0,0,0,0,0,0,0,0,0,0,0,0,0,1.3152,1.3225,1.3109,1.3042,1.3034,1.2997,1.2995,1.2993,1.2891,1.2889,1.2887,1.2885,1.2767,1.2764,1.2761,1.2779,0,0,1.2751,1.275,0,0,0,0,0,0,0,0,1.3156,1.3147,1.3053,1.3046,1.3038,1.2956,1.2992,1.2921,1.2891,1.2945,1.2887,1.2885,1.283,1.2821,1.2804,1.2773,1.2768,1.2751,1.2749,1.2748,1.2747,0,0,0,0,0,0,0,1.3161,1.3151,1.3064,1.3052,1.3042,1.3015,1.3002,1.2978,1.2899,1.294,1.2933,1.2921,1.2825,1.2807,1.28,1.2766,1.2751,1.2748,1.2746,1.2745,1.2743,1.2745,0,0,0,0,0,0,1.3178,1.3157,1.3068,1.3061,1.3094,1.3014,1.3,1.2984,1.2899,1.2884,1.2923,1.2917,1.2814,1.2804,1.2796,1.2811,1.2748,1.2745,1.2743,1.2741,1.2744,1.2746,0,0,0,0,0,0,1.3181,1.3171,1.3072,1.3106,1.3092,1.3014,1.2997,1.2983,1.2965,1.2886,1.2871,1.292,1.2812,1.28,1.2784,1.2806,1.2743,1.274,1.2739,1.2742,1.2745,1.2843,0,0,0,0,0,0,1.3185,1.3173,1.318,1.3108,1.309,1.3065,1.2998,1.2982,1.296,1.2951,1.2879,1.2865,1.2809,1.2789,1.2781,1.28,1.2738,1.2737,1.2741,1.2744,1.2837,1.2849,1.2858,0,0,0,0,0,1.3189,1.3211,1.3181,1.3171,1.3099,1.3066,1.3056,1.2994,1.2963,1.2969,1.2918,1.2867,1.2805,1.2789,1.2778,1.2797,1.2735,1.274,1.2744,1.2833,1.2847,1.2858,0,0,0,0,0,0,1.3286,1.32,1.3166,1.3166,1.3124,1.3049,1.3055,1.301,1.2975,1.2968,1.289,1.2874,1.2867,1.283,1.2813,1.281,1.2763,1.2765,1.2834,1.2847,1.2857,1.2866,1.2735,0,0,0,0,0,1.3308,1.3291,1.3215,1.3222,1.3203,1.3133,1.3116,1.3072,1.3025,1.3006,1.2954,1.2909,1.2879,1.286,1.2828,1.2831,1.2813,1.2839,1.2849,1.2858,1.2861,1.2859,1.287,1.2759,1.2759,1.2759,0,0,1.3351,1.3303,1.3296,1.324,1.3203,1.3185,1.3119,1.3102,1.3088,1.3003,1.2986,1.2946,1.2889,1.2883,1.2878,1.2852,1.2888,1.2864,1.2872,1.2869,1.2865,1.2875,1.2885,1.2762,1.2761,1.2761,0,0,1.3422,1.3384,1.3385,1.335,1.3295,1.3248,1.3249,1.318,1.3151,1.3133,1.3069,1.3049,1.2999,1.2962,1.2936,1.2993,1.2945,1.2985,1.3039,1.3039,1.3047,1.3055,1.3075,1.3083,1.2988,1.2988,1.2988,0,1.3483,1.3456,1.3391,1.3379,1.3356,1.3281,1.3281,1.3248,1.3185,1.317,1.3143,1.3079,1.3036,1.3019,1.3034,1.3016,1.3012,1.2993,1.3052,1.3058,1.3064,1.3083,1.309,1.2993,1.2993,1.2992,1.2992,0,1.3533,1.3515,1.3522,1.3466,1.3443,1.3438,1.337,1.3355,1.3312,1.3268,1.3249,1.3195,1.315,1.3143,1.31,1.3121,1.3107,1.3067,1.3018,1.3081,1.3097,1.3104,1.3001,1.2999,1.2997,1.2996,0,0,1.3662,1.3571,1.3574,1.3548,1.3482,1.3466,1.3455,1.3414,1.3402,1.3361,1.335,1.3309,1.3272,1.3243,1.3196,1.3195,1.3244,1.3155,1.3152,1.3173,1.3262,1.3293,1.3302,1.3211,1.3212,1.3213,1.3267,0,1.3722,1.3702,1.3644,1.3641,1.3622,1.355,1.3541,1.3499,1.3457,1.3433,1.3385,1.3359,1.3312,1.3294,1.329,1.3239,1.326,1.3234,1.3198,1.3198,1.3215,1.331,1.3343,1.3396,1.3272,1.3273,1.3274,0,1.3789,1.3755,1.3752,1.3687,1.3677,1.367,1.3628,1.3607,1.3557,1.3526,1.3495,1.3442,1.3425,1.3381,1.3356,1.3339,1.3321,1.3293,1.3294,1.3288,1.324,1.3307,1.3411,1.342,1.3283,1.3282,1.3282,0,1.3884,1.3837,1.3828,1.3808,1.3732,1.3729,1.3697,1.3645,1.3624,1.3586,1.3571,1.3531,1.3509,1.3478,1.3415,1.3389,1.3397,1.3347,1.337,1.3371,1.3375,1.3375,1.3478,1.3363,1.3363,1.3363,1.3363,0,1.3957,1.3958,1.387,1.3865,1.3863,1.3794,1.3793,1.3754,1.3708,1.3693,1.3627,1.3613,1.3531,1.3507,1.3458,1.3445,1.3435,1.3408,1.3395,1.3414,1.3418,1.3401,1.3396,1.3365,1.3364,1.3364,1.3364,0,1.4063,1.4004,1.399,1.392,1.3902,1.3904,1.3843,1.3834,1.3788,1.3769,1.3761,1.3688,1.3657,1.3591,1.3541,1.3508,1.3506,1.3482,1.3524,1.3516,1.3542,1.3541,1.3638,1.3647,1.3527,1.3528,1.3529,0,1.4113,1.4112,1.4043,1.4029,1.4,1.3978,1.3957,1.3889,1.3869,1.3812,1.381,1.3774,1.3742,1.3695,1.3636,1.3597,1.3572,1.3608,1.3565,1.3585,1.3572,1.3574,1.3573,1.3618,1.362,1.3621,1.3622,0,1.421,1.4181,1.4155,1.4118,1.4096,1.4063,1.4026,1.4018,1.3941,1.3921,1.389,1.3865,1.3815,1.378,1.3733,1.3696,1.3646,1.3637,1.364,1.3659,1.3684,1.3671,1.3551,1.3635,1.3633,1.3632,1.3632,1.3631,1.4289,1.4285,1.4236,1.4208,1.4174,1.4142,1.4131,1.4084,1.4058,1.4014,1.3974,1.3946,1.3894,1.3826,1.3793,1.3769,1.3744,1.3749,1.375,1.3752,1.376,1.3688,1.376,1.3759,1.3759,1.3758,1.3758,0,1.4382,1.4347,1.4323,1.4275,1.4253,1.421,1.4168,1.4152,1.4129,1.4086,1.4056,1.402,1.3985,1.3924,1.3884,1.3876,1.3852,1.3868,1.3868,1.386,1.3785,1.3786,1.3888,1.3888,1.3888,1.3888,1.3888,1.3888,1.4428,1.4419,1.4385,1.4357,1.4321,1.4296,1.4275,1.4244,1.421,1.4173,1.4145,1.4107,1.4056,1.4011,1.3977,1.396,1.3948,1.3971,1.3947,1.3877,1.3865,1.3854,1.3855,1.3969,1.3969,1.4024,1.4024,1.4025]}]]